Location: Madrid
(40.4128°N, 3.7077°W)
Time: 02:40:24
(UTC+00:00)

Daily predictions for brighter satellites

Satellite Brightness Start Highest point End
(mag) Time Altitude Azimuth Time Altitude Azimuth Time Altitude Azimuth
Cosmos 2333 Rocket 4.0 03:06:30 28° E 03:06:30 28° E 03:10:23 10° NE
USA 267 4.0 03:10:07 10° NE 03:14:42 46° NNE 03:14:42 46° NNE
SL-16 R/B 4.5 03:30:46 14° N 03:30:46 14° N 03:31:38 10° N
Cosmos 1709 Rocket 4.3 03:35:59 63° ESE 03:36:13 64° E 03:42:28 10° NNE
Cosmos 2219 Rocket 2.8 03:38:52 52° E 03:38:52 52° E 03:43:45 10° NNE
Cosmos 2237 Rocket 4.3 03:41:12 10° SSE 03:45:34 23° E 03:49:59 10° NE
USA 234 3.4 03:42:22 10° ESE 03:48:50 67° NE 03:50:49 46° NNW
IDEFIX/ARIANE 42P 2.7 03:50:45 10° NNE 03:55:58 69° E 03:55:58 69° E
COSMOS 2428 2.7 03:56:23 78° E 03:56:23 78° E 04:01:56 10° NNE
Cosmos 2322 Rocket 4.4 04:01:54 13° NNW 04:01:54 13° NNW 04:02:50 10° N
Cosmos 1992 Rocket 4.1 04:01:04 68° NE 04:01:26 71° ENE 04:06:36 10° SSE
H-2A R/B 3.4 04:00:39 10° NNE 04:04:39 46° E 04:04:58 45° ESE
ATLAS 3B R/B 4.2 04:01:56 10° NNW 04:07:46 31° NE 04:13:42 10° ESE
Cosmos 2360 Rocket 3.7 04:11:57 22° NNW 04:11:57 22° NNW 04:14:37 10° N
Cosmos 2251 Rocket 4.3 04:12:41 40° NNW 04:12:41 40° NNW 04:16:26 10° N
Meteor 2-16 Rocket 4.4 04:13:40 61° WNW 04:13:40 61° WNW 04:19:22 10° N
COSMOS 2455 3.4 04:14:56 42° NW 04:14:56 42° NW 04:19:57 10° NNE
Cosmos 1025 Rocket 3.0 04:20:29 72° SE 04:20:41 75° E 04:24:58 10° NNE
CENTAUR R/B 4.1 04:13:50 10° NNW 04:21:30 46° NE 04:29:45 10° ESE
Cosmos 2181 Rocket 3.9 04:16:00 10° N 04:22:24 86° W 04:28:39 10° S
ATLAS 2AS CENTAUR R/B 3.1 04:19:17 27° SSW 04:24:09 84° ESE 04:32:16 10° NE
Cosmos 1844 Rocket 4.4 04:34:31 16° SSW 04:34:31 16° SSW 04:35:45 10° S
USA 238 DEB 3.7 04:24:44 14° NW 04:31:05 84° WSW 04:38:33 10° SSE
USA 238 3.7 04:24:49 14° NW 04:31:12 85° WSW 04:38:38 10° SSE
Cosmos 921 Rocket 3.4 04:29:23 10° N 04:33:39 61° ENE 04:37:49 10° SSE
Cosmos 1536 Rocket 3.5 04:37:01 58° NW 04:37:01 58° NW 04:40:55 10° N
Aureole 1 Rocket 4.1 04:42:40 35° WSW 04:44:43 46° WNW 04:49:51 10° N
Cosmos 1190 Rocket 4.4 04:40:32 10° S 04:45:47 67° ESE 04:51:03 10° NNE
COSMOS 2441 4.3 04:43:30 10° N 04:48:23 65° WNW 04:52:40 13° SSW
Cosmos 407 Rocket 3.5 04:43:34 10° SSW 04:48:43 80° ESE 04:53:52 10° NNE
ADEOS 4.0 04:44:23 10° N 04:49:13 39° WNW 04:50:04 37° W
CZ-4B R/B 3.0 04:45:27 10° NNE 04:49:30 70° ESE 04:53:18 10° S
Cosmos 2333 Rocket 2.7 04:48:33 36° W 04:49:39 39° WNW 04:54:59 10° N
Meteor 1-22 Rocket 4.4 04:45:03 10° NNW 04:49:59 39° W 04:54:51 10° SSW
Cosmos 2278 Rocket 2.3 04:45:01 10° NNW 04:50:43 76° ENE 04:56:22 10° SSE
Meteor 1-4 Rocket 3.7 04:51:29 10° SSE 04:54:50 44° E 04:58:11 10° NNE
Cosmos 1844 4.5 04:55:31 29° WSW 04:55:31 29° WSW 04:59:56 10° SSW
ERBS 2.6 04:55:25 47° NW 04:55:25 47° NW 04:58:40 10° NE
Meteor 1-21 4.2 04:50:15 10° SSW 04:55:43 55° WNW 05:01:14 10° N
NOSS 3-2 (A) 4.0 04:49:39 10° NW 04:57:20 70° WSW 05:05:45 10° SSE
USA 267 4.5 04:53:31 10° NE 04:58:47 27° NNW 05:02:02 18° WNW
USA 32 4.0 04:55:00 10° SSW 05:00:08 58° W 05:05:19 10° N
MSX 4.1 04:59:50 10° N 05:05:16 46° WNW 05:10:41 10° SW
PSLV R/B 4.2 05:02:39 10° NNE 05:06:21 61° E 05:09:59 10° S
Cosmos 1953 2.5 05:04:16 10° N 05:08:19 75° E 05:12:19 10° SSE
CZ-2C R/B 2.5 05:04:51 10° N 05:09:57 58° WNW 05:15:00 10° SSW
Cosmos 1606 Rocket 3.9 05:07:22 10° N 05:11:41 68° E 05:15:58 10° SSE
Cosmos 2154 Rocket 4.0 05:07:31 10° S 05:13:42 87° E 05:19:56 10° N
Cosmos 1758 3.5 05:11:20 10° NNW 05:15:12 47° W 05:19:04 10° SSW
Cosmos 2327 Rocket 4.4 05:09:55 10° SSW 05:16:10 74° W 05:22:22 10° N
Okean 1-7 Rocket 4.1 05:14:34 10° S 05:18:56 64° E 05:23:22 10° NNE
NOSS 3-2 (C) 4.1 05:12:15 10° NW 05:19:58 74° WSW 05:28:26 10° SSE
Cosmos 389 Rocket 2.6 05:18:33 10° SSW 05:21:50 45° WNW 05:25:09 10° N
ALOS 3.7 05:17:27 10° NNE 05:21:54 42° E 05:26:19 10° S
Cosmos 2219 Rocket 3.4 05:20:39 19° W 05:22:37 22° NW 05:26:57 10° N
Cosmos 2184 Rocket 4.2 05:17:48 10° SSW 05:23:44 48° WNW 05:29:46 10° N
Cosmos 1610 Rocket 4.5 05:17:45 10° SSW 05:23:59 72° W 05:30:20 10° N
Cosmos 1954 Rocket 4.1 05:19:24 10° SSW 05:24:40 82° ESE 05:29:54 10° NNE
Cosmos 2237 Rocket 2.4 05:23:48 10° SW 05:29:15 48° WNW 05:34:46 10° NNE
RESURS DK-1 2.9 05:25:30 10° SSW 05:29:33 62° ESE 05:33:40 10° NNE
CZ-4B DEB 4.4 05:25:20 10° NNE 05:30:50 79° ESE 05:36:17 10° S
USA 234 3.9 05:26:15 10° S 05:32:05 34° SW 05:37:56 10° WNW
SJ-12 4.1 05:28:44 10° NNE 05:32:50 78° ESE 05:36:55 10° S
COSMO-SKYMED 1 2.5 05:30:17 10° SSE 05:34:37 88° WSW 05:38:59 10° NNW
NOSS 3-4 (A) 3.7 05:28:53 10° SW 05:34:43 50° NW 05:40:53 10° NNE
NOSS 3-4 (C) 3.6 05:28:57 10° SW 05:34:48 51° NW 05:40:59 10° NNE
IDEFIX/ARIANE 42P 4.1 05:31:57 10° NNW 05:34:59 16° WNW 05:36:46 13° W
Cosmos 2341 Rocket 4.2 05:29:52 10° S 05:36:07 77° E 05:42:20 10° N
Meteor 1-31 Rocket 3.6 05:32:59 10° N 05:36:16 28° WNW 05:39:31 10° SW
Cosmos 292 Rocket 4.4 05:32:23 10° NW 05:36:42 34° WSW 05:41:00 10° SSW
Nadezhda 3 Rocket 4.0 05:31:09 10° NNW 05:37:29 71° W 05:43:46 10° S
Cosmos 1140 Rocket 3.6 05:32:33 10° SW 05:37:38 55° WNW 05:42:43 10° N
Meteor PRIRODA 4.1 05:34:39 10° N 05:38:11 41° WNW 05:41:42 10° SW
USA 116 4.2 05:34:21 10° SSE 05:38:20 63° ENE 05:41:53 10° N
H-2A R/B 4.1 05:37:22 10° NNW 05:39:47 15° WNW 05:41:32 12° W
Cosmos 44 3.0 05:35:54 10° NW 05:40:10 57° WSW 05:44:22 10° SSE
In-Cosmos 22 4.1 05:35:13 10° S 05:40:31 82° W 05:45:58 10° N
COSMOS 2428 4.2 05:38:27 13° W 05:41:10 17° NW 05:44:50 10° N
Cosmos 1470 4.0 05:42:01 10° NW 05:45:00 21° W 05:47:57 10° SW
Cosmos 1707 3.8 05:42:40 10° SW 05:45:56 25° WNW 05:49:14 10° NNW
Cosmos 1980 4.4 05:41:04 10° WSW 05:46:07 33° WNW 05:51:13 10° N
CZ-4B R/B 3.3 05:47:40 10° NNE 05:53:00 82° ESE 05:58:17 10° SSW
Cosmos 1726 Rocket 3.7 05:49:10 10° NNW 05:53:20 49° W 05:57:29 10° SSW
Cosmos 1484 Rocket 3.1 05:50:05 10° N 05:53:39 40° WNW 05:57:14 10° SW
Cosmos 1356 3.4 05:51:02 10° NNW 05:54:25 57° W 05:57:48 10° S
Okean O Rocket 1.6 05:50:53 10° NNE 05:55:19 83° WNW 05:59:41 10° SSW
ASTEX 1 4.2 05:51:53 10° SSE 05:56:39 56° E 06:01:26 10° N
ATLAS 3B R/B 2.8 05:52:14 10° NW 05:58:50 61° WSW 06:05:36 10° SSE
Cosmos 2228 3.5 05:56:54 10° NNW 06:00:51 37° W 06:04:44 10° SSW
Meteor 2-10 4.0 05:56:36 10° NNW 06:01:45 67° W 06:07:03 10° S
